Location: ?????
(38.3715°N, 23.0573°E)
Time: 16:46:12
(UTC+00:00)

Meteor 2-2 Rocket - Pass Details

Date: 03 August 2024
Orbit: 852 x 927 km, 81.3° (Epoch: 18 September)

Event Time Altitude Azimuth Distance (km) Brightness Sun altitude
Rises 20:03:10 0° 350° (N) 3,531 8.4 -24.1°
Reaches altitude 10° 20:05:37 10° 350° (N) 2,596 7.5 -24.5°
Maximum altitude 20:11:34 85° 263° (W) 926 4.3 -25.2°
Enters shadow 20:12:53 57° 181° (S) 1,075 4.4 -25.3°
